Weather History for KGNV - October, 2013

Change the Weather History Date:

Tuesday, October 1, 2013

  Actual Average Record
Temperature  
Mean Temperature 77 °F 75 °F  
Max Temperature 86 °F 85 °F 95 °F (1904)
Min Temperature 68 °F 66 °F 40 °F (1920)
Degree Days  
Heating Degree Days 0 0  
Month to date heating degree days 0 0  
Since 1 July heating degree days 0 0  
Cooling Degree Days 12 10  
Month to date cooling degree days 12 10  
Year to date cooling degree days 2513 2350  
Growing Degree Days 26 (Base 50)    
Moisture  
Dew Point 66 °F    
Average Humidity 71    
Maximum Humidity 87    
Minimum Humidity 55    
Precipitation  
Precipitation 0.02 in 0.14 in 1.79 in (1951)
Month to date precipitation 0.02 0.14  
Year to date precipitation 39.92 40.13  
Snow  
Snow 0.00 in 0.00 in 0.00 in ()
Month to date snowfall 0.0 0.0  
Since 1 July snowfall 0.0 0.0  
Since 1 September snowfall 0.0 0.0  
Snow Depth 0.00 in    
Sea Level Pressure  
Sea Level Pressure 30.06 in    
Wind  
Wind Speed 4 mph (ENE)    
Max Wind Speed 13 mph    
Max Gust Speed 15 mph    
Visibility 10 miles    
Events Rain    
T = Trace of Precipitation, MM = Missing Value Source: NWS Daily Summary

Daily Weather History Graph

Daily Weather History Graph

Search for Another Location

Airport or City:

Trip Planner

Search our weather history database for the weather conditions in past years. The results will help you decide how hot, cold, wet, or windy it might be!

Date:

Astronomy

Oct. 01, 2013 Rise Set
Actual Time 7:22 AM EDT 7:14 PM EDT
Civil Twilight 6:58 AM EDT 7:38 PM EDT
Nautical Twilight 6:31 AM EDT 8:05 PM EDT
Astronomical Twilight 6:03 AM EDT 8:33 PM EDT
Moon 4:08 AM EDT (10/1) 5:06 PM EDT (10/1)
Length of Visible Light 12h 39m
Length of Day
11h 51m
Waning Crescent, 12% of the Moon is Illuminated
Oct 1
Waning Crescent
Oct 4
New
Oct 11
First Quarter
Oct 18
Full
Oct 26
Last Quarter

Hourly Weather History & Observations

Time (EDT) Temp. Heat Index Dew Point Humidity Pressure Visibility Wind Dir Wind Speed Gust Speed Precip Events Conditions
12:53 AM 71.1 °F - 64.0 °F 78% 30.04 in 10.0 mi NE 5.8 mph - N/A   Mostly Cloudy
1:53 AM 70.0 °F - 64.0 °F 81% 30.03 in 10.0 mi Calm Calm - N/A   Scattered Clouds
2:53 AM 70.0 °F - 64.0 °F 81% 30.02 in 10.0 mi ENE 3.5 mph - N/A   Mostly Cloudy
3:53 AM 71.1 °F - 64.0 °F 78% 30.02 in 10.0 mi NE 3.5 mph - N/A   Overcast
4:53 AM 69.1 °F - 64.0 °F 84% 30.02 in 10.0 mi Calm Calm - N/A   Partly Cloudy
5:53 AM 70.0 °F - 64.9 °F 84% 30.04 in 10.0 mi Calm Calm - N/A   Overcast
6:53 AM 69.1 °F - 66.0 °F 90% 30.05 in 10.0 mi NE 3.5 mph - 0.02 in Rain Light Rain
7:53 AM 69.1 °F - 66.0 °F 90% 30.07 in 10.0 mi Calm Calm - 0.00 in   Overcast
8:53 AM 72.0 °F - 66.9 °F 84% 30.08 in 10.0 mi ENE 4.6 mph - N/A   Overcast
9:53 AM 75.9 °F - 66.9 °F 74% 30.10 in 10.0 mi ENE 6.9 mph - N/A   Scattered Clouds
10:53 AM 79.0 °F - 66.9 °F 66% 30.09 in 10.0 mi ENE 8.1 mph - N/A   Clear
11:14 AM 80.6 °F 82.7 °F 66.2 °F 61% 30.10 in 10.0 mi East 5.8 mph - N/A   Mostly Cloudy
11:53 AM 82.0 °F 84.5 °F 66.9 °F 60% 30.09 in 10.0 mi ENE 9.2 mph - N/A   Mostly Cloudy
12:07 PM 82.4 °F 85.4 °F 68.0 °F 62% 30.09 in 10.0 mi ENE 9.2 mph - N/A   Scattered Clouds
12:53 PM 81.0 °F 83.8 °F 68.0 °F 65% 30.08 in 10.0 mi East 5.8 mph - N/A   Mostly Cloudy
1:53 PM 84.0 °F 87.0 °F 68.0 °F 58% 30.05 in 10.0 mi Variable 4.6 mph - N/A   Scattered Clouds
2:53 PM 84.0 °F 86.5 °F 66.9 °F 56% 30.03 in 10.0 mi Variable 4.6 mph - N/A   Mostly Cloudy
3:53 PM 84.9 °F 88.2 °F 68.0 °F 57% 30.02 in 10.0 mi Calm Calm - N/A   Mostly Cloudy
4:53 PM 82.9 °F 86.5 °F 69.1 °F 63% 30.01 in 10.0 mi NE 10.4 mph - N/A   Mostly Cloudy
5:53 PM 82.0 °F 84.5 °F 66.9 °F 60% 30.02 in 10.0 mi East 6.9 mph - N/A   Clear
6:53 PM 78.1 °F - 66.9 °F 68% 30.04 in 10.0 mi East 6.9 mph - N/A   Overcast
7:53 PM 73.9 °F - 66.9 °F 79% 30.05 in 10.0 mi East 4.6 mph - N/A   Clear
8:53 PM 72.0 °F - 64.9 °F 78% 30.07 in 10.0 mi East 5.8 mph - N/A   Clear
9:53 PM 71.1 °F - 64.0 °F 78% 30.10 in 10.0 mi East 6.9 mph - N/A   Partly Cloudy
10:53 PM 69.1 °F - 64.0 °F 84% 30.10 in 10.0 mi Calm Calm - N/A   Mostly Cloudy
11:53 PM 68.0 °F - 64.0 °F 87% 30.10 in 10.0 mi Calm Calm - N/A   Partly Cloudy